FDX222 LOWS-LHBP

Flight info

Callsign FDX222
Flight time 0h 49m
Altitude 27000
Route NEMAL DCT ABLOM DCT XENAK/N0433F230 L175 ANEXA
Aircraft B722/M-SHIRWY/S

Departure

Time 2026-05-07 18:33
Airport Salzburg Airport (LOWS)

Arrival

Time 2026-05-07 19:23
Airport Budapest Liszt Ferenc International Airport (LHBP)
Time Latitude Longitude Altitude Speed Heading
2026-05-07 18:22 47.79015 13.00213 1423 ft 0 kts 102°
2026-05-07 18:28 47.79014 13.00218 1423 ft 3 kts 106°
2026-05-07 18:29 47.78986 13.00259 1423 ft 7 kts 156°
2026-05-07 18:29 47.78955 13.00312 1423 ft 7 kts 102°
2026-05-07 18:29 47.78929 13.00377 1423 ft 8 kts 149°
2026-05-07 18:29 47.78873 13.00415 1423 ft 10 kts 156°
2026-05-07 18:30 47.78806 13.00459 1423 ft 11 kts 157°
2026-05-07 18:30 47.78738 13.00503 1423 ft 11 kts 156°
2026-05-07 18:30 47.78671 13.00544 1423 ft 10 kts 156°
2026-05-07 18:30 47.78607 13.00585 1423 ft 10 kts 156°
2026-05-07 18:31 47.78546 13.00624 1423 ft 10 kts 155°
2026-05-07 18:31 47.78484 13.00664 1423 ft 11 kts 157°
2026-05-07 18:31 47.78407 13.00714 1423 ft 13 kts 157°
2026-05-07 18:31 47.78313 13.00772 1423 ft 16 kts 157°
2026-05-07 18:32 47.78212 13.00859 1423 ft 17 kts 135°
2026-05-07 18:32 47.78191 13.01006 1425 ft 15 kts 70°
2026-05-07 18:32 47.78246 13.01076 1424 ft 12 kts 349°
2026-05-07 18:32 47.78368 13.01002 1422 ft 39 kts 335°
2026-05-07 18:33 47.78812 13.00722 1423 ft 98 kts 337°
2026-05-07 18:33 47.79600 13.00224 1433 ft 145 kts 336°
2026-05-07 18:33 47.80566 12.99611 1791 ft 159 kts 337°
2026-05-07 18:33 47.81597 12.98975 2202 ft 163 kts 347°
2026-05-07 18:34 47.82755 12.99031 2459 ft 176 kts 22°
2026-05-07 18:34 47.83806 13.00032 2857 ft 184 kts 34°
2026-05-07 18:34 47.84909 13.01217 3170 ft 209 kts 35°
2026-05-07 18:34 47.86099 13.02544 3860 ft 218 kts 35°
2026-05-07 18:35 47.87373 13.03905 4406 ft 240 kts 33°
2026-05-07 18:35 47.88848 13.05418 4585 ft 274 kts 33°
2026-05-07 18:35 47.90381 13.07037 5623 ft 268 kts 34°
2026-05-07 18:35 47.91755 13.08943 6437 ft 277 kts 53°
2026-05-07 18:36 47.92628 13.11525 7206 ft 284 kts 73°
2026-05-07 18:36 47.92914 13.14440 8019 ft 288 kts 88°
2026-05-07 18:36 47.92853 13.17453 8787 ft 294 kts 95°
2026-05-07 18:36 47.92669 13.20495 9587 ft 299 kts 95°
2026-05-07 18:37 47.92553 13.23660 10097 ft 315 kts 92°
2026-05-07 18:37 47.92497 13.26998 10552 ft 330 kts 91°
2026-05-07 18:37 47.92412 13.30470 11009 ft 343 kts 93°
2026-05-07 18:37 47.92287 13.34102 11467 ft 358 kts 93°
2026-05-07 18:38 47.92161 13.37897 11938 ft 377 kts 93°
2026-05-07 18:38 47.92054 13.41788 12929 ft 377 kts 92°
2026-05-07 18:38 47.91939 13.45720 13758 ft 384 kts 93°
2026-05-07 18:38 47.91828 13.49699 14516 ft 388 kts 91°
2026-05-07 18:39 47.91893 13.53736 15252 ft 393 kts 85°
2026-05-07 18:39 47.92209 13.57803 15987 ft 397 kts 82°
2026-05-07 18:39 47.92560 13.61910 16723 ft 402 kts 84°
2026-05-07 18:39 47.92753 13.65641 17345 ft 406 kts 86°
2026-05-07 18:40 47.92909 13.69876 18035 ft 411 kts 86°
2026-05-07 18:40 47.93140 13.74136 18666 ft 415 kts 84°
2026-05-07 18:40 47.93424 13.78417 19264 ft 419 kts 84°
2026-05-07 18:40 47.93672 13.82759 19878 ft 422 kts 85°
2026-05-07 18:41 47.93881 13.87128 20459 ft 425 kts 85°
2026-05-07 18:41 47.94108 13.91526 21038 ft 428 kts 85°
2026-05-07 18:41 47.94361 13.95972 21599 ft 432 kts 85°
2026-05-07 18:41 47.94608 14.00442 22148 ft 435 kts 85°
2026-05-07 18:42 47.94837 14.04949 22702 ft 438 kts 85°
2026-05-07 18:42 47.95068 14.09482 23232 ft 442 kts 85°
2026-05-07 18:42 47.95308 14.14056 23729 ft 445 kts 85°
2026-05-07 18:42 47.95552 14.18670 24152 ft 448 kts 85°
2026-05-07 18:43 47.95788 14.23293 24565 ft 450 kts 86°
2026-05-07 18:43 47.96020 14.27958 24976 ft 453 kts 86°
2026-05-07 18:43 47.96256 14.32648 25371 ft 456 kts 86°
2026-05-07 18:43 47.96495 14.37378 25761 ft 458 kts 86°
2026-05-07 18:44 47.96729 14.42106 26169 ft 461 kts 86°
2026-05-07 18:44 47.96963 14.46891 26527 ft 464 kts 86°
2026-05-07 18:44 47.97194 14.51698 26898 ft 466 kts 86°
2026-05-07 18:44 47.97429 14.56536 27037 ft 474 kts 86°
2026-05-07 18:45 47.97667 14.61489 27046 ft 484 kts 87°
2026-05-07 18:45 47.97905 14.66534 27046 ft 494 kts 87°
2026-05-07 18:45 47.98146 14.71671 27054 ft 502 kts 87°
2026-05-07 18:45 47.98390 14.76920 27051 ft 510 kts 87°
2026-05-07 18:46 47.98632 14.82214 27057 ft 517 kts 87°
2026-05-07 18:46 47.98876 14.87583 27060 ft 519 kts 87°
2026-05-07 18:46 47.99120 14.92938 27050 ft 518 kts 87°
2026-05-07 18:46 47.99358 14.98283 27045 ft 518 kts 87°
2026-05-07 18:47 47.99593 15.03649 27044 ft 518 kts 88°
2026-05-07 18:47 47.99826 15.08994 27045 ft 518 kts 88°
2026-05-07 18:47 48.00056 15.14339 27048 ft 518 kts 88°
2026-05-07 18:47 48.00287 15.19693 27049 ft 518 kts 88°
2026-05-07 18:48 48.00514 15.25060 27034 ft 518 kts 88°
2026-05-07 18:48 48.00735 15.30403 27033 ft 518 kts 88°
2026-05-07 18:48 48.00958 15.35765 27034 ft 518 kts 88°
2026-05-07 18:48 48.01178 15.41119 27032 ft 517 kts 88°
2026-05-07 18:49 48.01392 15.46454 27030 ft 517 kts 88°
2026-05-07 18:49 48.01605 15.51817 27023 ft 517 kts 89°
2026-05-07 18:49 48.01816 15.57165 27024 ft 517 kts 89°
2026-05-07 18:49 48.02026 15.62514 27017 ft 517 kts 89°
2026-05-07 18:50 48.02230 15.67862 27025 ft 517 kts 89°
2026-05-07 18:50 48.02431 15.73222 27018 ft 517 kts 89°
2026-05-07 18:50 48.02638 15.78558 27019 ft 516 kts 89°
2026-05-07 18:50 48.02837 15.83903 27015 ft 516 kts 90°
2026-05-07 18:51 48.03028 15.89244 27014 ft 516 kts 90°
2026-05-07 18:51 48.03220 15.94586 27008 ft 516 kts 90°
2026-05-07 18:51 48.03414 15.99912 27005 ft 515 kts 90°
2026-05-07 18:51 48.03603 16.05257 27009 ft 515 kts 90°
2026-05-07 18:52 48.03786 16.10585 27005 ft 515 kts 90°
2026-05-07 18:52 48.03962 16.15759 27012 ft 514 kts 90°
2026-05-07 18:52 48.04145 16.21094 27014 ft 514 kts 90°
2026-05-07 18:52 48.04322 16.26398 27011 ft 514 kts 90°
2026-05-07 18:53 48.04496 16.31736 27008 ft 514 kts 90°
2026-05-07 18:53 48.04670 16.37061 27006 ft 513 kts 90°
2026-05-07 18:53 48.04840 16.42369 27013 ft 513 kts 90°
2026-05-07 18:53 48.05008 16.47677 27012 ft 513 kts 90°
2026-05-07 18:54 48.05174 16.53002 27016 ft 513 kts 91°
2026-05-07 18:54 48.05335 16.58307 27012 ft 513 kts 91°
2026-05-07 18:54 48.05495 16.63628 27015 ft 513 kts 91°
2026-05-07 18:54 48.05654 16.68934 27011 ft 513 kts 91°
2026-05-07 18:55 48.05809 16.74235 27016 ft 513 kts 91°
2026-05-07 18:55 48.05961 16.79561 27010 ft 513 kts 91°
2026-05-07 18:55 48.06111 16.84870 27009 ft 513 kts 91°
2026-05-07 18:55 48.06260 16.90195 27000 ft 513 kts 91°
2026-05-07 18:56 48.06406 16.95526 26992 ft 514 kts 91°
2026-05-07 18:56 48.06547 17.00844 26987 ft 514 kts 91°
2026-05-07 18:56 48.06732 17.06180 26981 ft 516 kts 88°
2026-05-07 18:56 48.07445 17.11450 26988 ft 521 kts 77°
2026-05-07 18:57 48.08537 17.16593 26993 ft 523 kts 73°
2026-05-07 18:57 48.09786 17.21695 26981 ft 522 kts 75°
2026-05-07 18:57 48.10539 17.26954 26986 ft 516 kts 86°
2026-05-07 18:57 48.10670 17.32272 26985 ft 510 kts 97°
2026-05-07 18:58 48.10198 17.37495 26987 ft 504 kts 107°
2026-05-07 18:58 48.09318 17.42539 26980 ft 501 kts 111°
2026-05-07 18:58 48.08230 17.47459 26986 ft 499 kts 115°
2026-05-07 18:58 48.07020 17.52314 26991 ft 499 kts 115°
2026-05-07 18:59 48.05916 17.57222 26988 ft 501 kts 112°
2026-05-07 18:59 48.04923 17.62209 26986 ft 502 kts 111°
2026-05-07 18:59 48.03879 17.67141 26896 ft 492 kts 114°
2026-05-07 18:59 48.02779 17.71869 26661 ft 472 kts 115°
2026-05-07 19:00 48.01729 17.76416 26324 ft 456 kts 114°
2026-05-07 19:00 48.00769 17.80850 25978 ft 443 kts 113°
2026-05-07 19:00 47.99841 17.85157 25561 ft 432 kts 114°
2026-05-07 19:00 47.98897 17.89347 25157 ft 422 kts 114°
2026-05-07 19:01 47.97960 17.93450 24765 ft 414 kts 114°
2026-05-07 19:01 47.97062 17.97467 24375 ft 407 kts 114°
2026-05-07 19:01 47.96184 18.01435 24015 ft 400 kts 114°
2026-05-07 19:01 47.95307 18.05342 23625 ft 394 kts 114°
2026-05-07 19:02 47.94440 18.09165 23190 ft 389 kts 114°
2026-05-07 19:02 47.93582 18.12960 22746 ft 384 kts 114°
2026-05-07 19:02 47.92741 18.16705 22311 ft 380 kts 114°
2026-05-07 19:02 47.91902 18.20416 21878 ft 376 kts 114°
2026-05-07 19:03 47.91059 18.24118 21465 ft 384 kts 114°
2026-05-07 19:03 47.90175 18.27977 20953 ft 403 kts 113°
2026-05-07 19:03 47.89261 18.32000 20417 ft 420 kts 113°
2026-05-07 19:03 47.88323 18.36153 19888 ft 424 kts 113°
2026-05-07 19:04 47.87379 18.40312 19358 ft 424 kts 113°
2026-05-07 19:04 47.86208 18.44262 18831 ft 414 kts 126°
2026-05-07 19:04 47.84815 18.47994 18316 ft 416 kts 118°
2026-05-07 19:04 47.83756 18.52007 17724 ft 418 kts 114°
2026-05-07 19:05 47.82788 18.56065 17147 ft 417 kts 113°
2026-05-07 19:05 47.81765 18.60089 16566 ft 414 kts 117°
2026-05-07 19:05 47.80434 18.63840 16008 ft 407 kts 124°
2026-05-07 19:05 47.79122 18.67482 15463 ft 394 kts 120°
2026-05-07 19:06 47.78175 18.70352 15032 ft 385 kts 119°
2026-05-07 19:06 47.75871 18.77306 13855 ft 369 kts 119°
2026-05-07 19:06 47.74741 18.80692 13136 ft 364 kts 119°
2026-05-07 19:07 47.73617 18.84026 12386 ft 360 kts 119°
2026-05-07 19:07 47.72495 18.87333 11560 ft 359 kts 119°
2026-05-07 19:07 47.71367 18.90623 10739 ft 356 kts 119°
2026-05-07 19:07 47.70240 18.93853 9956 ft 353 kts 119°
2026-05-07 19:08 47.69119 18.97048 9136 ft 349 kts 119°
2026-05-07 19:08 47.68078 19.00078 9645 ft 305 kts 118°
2026-05-07 19:08 47.67216 19.02712 10019 ft 277 kts 118°
2026-05-07 19:08 47.66363 19.05318 9993 ft 288 kts 118°
2026-05-07 19:09 47.65463 19.08026 9998 ft 295 kts 119°
2026-05-07 19:09 47.64418 19.10596 9977 ft 289 kts 128°
2026-05-07 19:09 47.63200 19.12892 9725 ft 279 kts 134°
2026-05-07 19:09 47.61922 19.15003 9452 ft 272 kts 135°
2026-05-07 19:10 47.60669 19.17052 9102 ft 269 kts 135°
2026-05-07 19:10 47.59410 19.19105 8666 ft 269 kts 135°
2026-05-07 19:10 47.58283 19.20955 8256 ft 267 kts 135°
2026-05-07 19:10 47.57051 19.22978 7818 ft 263 kts 135°
2026-05-07 19:11 47.55833 19.24975 7417 ft 261 kts 135°
2026-05-07 19:11 47.54620 19.26960 6999 ft 261 kts 135°
2026-05-07 19:11 47.53407 19.28939 6594 ft 261 kts 135°
2026-05-07 19:11 47.52200 19.30931 6156 ft 259 kts 135°
2026-05-07 19:12 47.51012 19.32892 5725 ft 255 kts 135°
2026-05-07 19:12 47.49825 19.34837 5298 ft 256 kts 135°
2026-05-07 19:12 47.48630 19.36784 5004 ft 252 kts 135°
2026-05-07 19:12 47.47482 19.38649 5005 ft 243 kts 135°
2026-05-07 19:13 47.46365 19.40489 4995 ft 238 kts 135°
2026-05-07 19:13 47.45262 19.42299 4992 ft 239 kts 135°
2026-05-07 19:13 47.44136 19.44138 4848 ft 243 kts 135°
2026-05-07 19:13 47.43007 19.45989 4492 ft 244 kts 135°
2026-05-07 19:14 47.41863 19.47850 4138 ft 246 kts 135°
2026-05-07 19:14 47.40714 19.49712 3784 ft 247 kts 135°
2026-05-07 19:14 47.39557 19.51576 3442 ft 247 kts 135°
2026-05-07 19:14 47.38394 19.53438 3087 ft 248 kts 135°
2026-05-07 19:15 47.37241 19.55265 2994 ft 237 kts 135°
2026-05-07 19:15 47.36150 19.56994 2985 ft 228 kts 135°
2026-05-07 19:15 47.35083 19.58696 2994 ft 226 kts 135°
2026-05-07 19:15 47.34013 19.60398 3005 ft 228 kts 135°
2026-05-07 19:16 47.32875 19.62030 2987 ft 228 kts 148°
2026-05-07 19:16 47.31411 19.62609 2995 ft 216 kts 189°
2026-05-07 19:16 47.30111 19.61732 3015 ft 203 kts 218°
2026-05-07 19:16 47.29046 19.60430 3005 ft 194 kts 220°
2026-05-07 19:17 47.28042 19.59185 2992 ft 184 kts 222°
2026-05-07 19:17 47.27364 19.57694 2931 ft 175 kts 262°
2026-05-07 19:17 47.27661 19.56076 2967 ft 160 kts 300°
2026-05-07 19:17 47.28218 19.54639 3027 ft 173 kts 295°
2026-05-07 19:18 47.28798 19.53068 3025 ft 171 kts 296°
2026-05-07 19:18 47.29358 19.51601 2999 ft 158 kts 300°
2026-05-07 19:18 47.29932 19.50283 2997 ft 152 kts 290°
2026-05-07 19:18 47.30340 19.48798 3012 ft 160 kts 290°
2026-05-07 19:19 47.31005 19.47431 3023 ft 171 kts 314°
2026-05-07 19:19 47.31898 19.46192 3017 ft 182 kts 311°
2026-05-07 19:19 47.32755 19.44778 3013 ft 186 kts 308°
2026-05-07 19:19 47.33602 19.43382 2941 ft 181 kts 311°
2026-05-07 19:20 47.34452 19.42049 2718 ft 175 kts 310°
2026-05-07 19:20 47.35237 19.40753 2503 ft 165 kts 310°
2026-05-07 19:20 47.35992 19.39564 2274 ft 153 kts 311°
2026-05-07 19:20 47.36667 19.38450 2073 ft 139 kts 310°
2026-05-07 19:21 47.37342 19.37392 1893 ft 142 kts 311°
2026-05-07 19:21 47.37998 19.36311 1714 ft 141 kts 309°
2026-05-07 19:21 47.38658 19.35253 1521 ft 140 kts 312°
2026-05-07 19:21 47.39318 19.34201 1326 ft 139 kts 310°
2026-05-07 19:22 47.39951 19.33143 1125 ft 136 kts 311°
2026-05-07 19:22 47.40614 19.32112 950 ft 143 kts 313°
2026-05-07 19:22 47.41291 19.31006 751 ft 147 kts 311°
2026-05-07 19:22 47.41972 19.29905 575 ft 143 kts 312°
2026-05-07 19:23 47.42625 19.28853 449 ft 130 kts 313°
2026-05-07 19:23 47.43088 19.28106 463 ft 59 kts 313°
2026-05-07 19:23 47.43283 19.27780 466 ft 32 kts 303°
2026-05-07 19:23 47.43344 19.27573 465 ft 19 kts 285°
2026-05-07 19:24 47.43372 19.27402 465 ft 8 kts 282°
2026-05-07 19:24 47.43373 19.27395 464 ft 0 kts 282°
2026-05-07 19:24 47.43379 19.27356 465 ft 8 kts 282°
2026-05-07 19:25 47.43399 19.27224 463 ft 7 kts 281°
2026-05-07 19:25 47.43399 19.27222 463 ft 0 kts 281°
2026-05-07 19:25 47.43399 19.27221 463 ft 1 kts 281°
2026-05-07 19:26 47.43402 19.27202 461 ft 0 kts 282°
2026-05-07 19:27 47.43403 19.27193 460 ft 4 kts 281°
2026-05-07 19:27 47.43413 19.27119 462 ft 10 kts 282°
2026-05-07 19:28 47.43435 19.27007 460 ft 12 kts 295°
2026-05-07 19:28 47.43487 19.26904 462 ft 13 kts 312°
2026-05-07 19:28 47.43552 19.26800 462 ft 14 kts 312°
2026-05-07 19:28 47.43622 19.26687 462 ft 16 kts 312°
2026-05-07 19:29 47.43697 19.26566 461 ft 17 kts 313°
2026-05-07 19:29 47.43776 19.26438 461 ft 17 kts 312°
2026-05-07 19:29 47.43857 19.26307 461 ft 14 kts 312°
2026-05-07 19:29 47.43885 19.26259 461 ft 5 kts 311°
2026-05-07 19:30 47.43908 19.26215 461 ft 5 kts 295°
2026-05-07 19:30 47.43908 19.26160 461 ft 6 kts 250°
2026-05-07 19:30 47.43876 19.26101 461 ft 8 kts 222°
2026-05-07 19:30 47.43830 19.26040 459 ft 9 kts 222°
2026-05-07 19:31 47.43779 19.25973 460 ft 10 kts 222°
2026-05-07 19:31 47.43726 19.25900 461 ft 11 kts 223°
2026-05-07 19:31 47.43669 19.25822 461 ft 11 kts 222°
2026-05-07 19:31 47.43608 19.25742 460 ft 12 kts 222°
2026-05-07 19:32 47.43545 19.25658 461 ft 13 kts 222°
2026-05-07 19:32 47.43479 19.25569 460 ft 13 kts 221°
2026-05-07 19:32 47.43410 19.25476 461 ft 14 kts 222°
2026-05-07 19:32 47.43337 19.25379 461 ft 14 kts 221°
2026-05-07 19:33 47.43261 19.25275 461 ft 15 kts 226°
2026-05-07 19:33 47.43240 19.25135 461 ft 15 kts 293°
2026-05-07 19:33 47.43309 19.25008 460 ft 17 kts 312°
2026-05-07 19:33 47.43389 19.24879 460 ft 17 kts 312°
2026-05-07 19:34 47.43472 19.24745 459 ft 18 kts 313°
2026-05-07 19:34 47.43558 19.24605 459 ft 19 kts 312°
2026-05-07 19:34 47.43650 19.24457 460 ft 20 kts 312°
2026-05-07 19:34 47.43747 19.24303 460 ft 21 kts 313°
2026-05-07 19:35 47.43847 19.24140 459 ft 21 kts 312°
2026-05-07 19:35 47.43913 19.23983 460 ft 17 kts 270°
2026-05-07 19:35 47.43853 19.23831 458 ft 19 kts 223°
2026-05-07 19:35 47.43777 19.23673 460 ft 19 kts 263°
2026-05-07 19:36 47.43758 19.23479 459 ft 20 kts 261°
2026-05-07 19:36 47.43736 19.23273 460 ft 21 kts 261°
2026-05-07 19:36 47.43717 19.23090 458 ft 16 kts 260°
2026-05-07 19:36 47.43701 19.22940 458 ft 12 kts 261°
2026-05-07 19:37 47.43741 19.22843 460 ft 12 kts 321°
2026-05-07 19:37 47.43809 19.22770 460 ft 12 kts 322°
2026-05-07 19:37 47.43873 19.22702 460 ft 9 kts 342°
2026-05-07 19:37 47.43902 19.22730 459 ft 5 kts 55°
2026-05-07 19:38 47.43920 19.22766 460 ft 3 kts 53°
2026-05-07 19:38 47.43923 19.22771 460 ft 0 kts 53°